Meknes, Morocco

12:49 AM WET on February 19, 2018 (GMT +0000)
Meknes

Weather History for GMFM - September, 2012

Change the Weather History Date:

Friday, September 7, 2012

  Actual Average (GMFF) Record (GMFF)
Temperature  
Mean Temperature 74 °F -  
Max Temperature 86 °F 83 °F 104 °F (2016)
Min Temperature 62 °F 60 °F 57 °F (2001)
Cooling Degree Days 9    
Growing Degree Days 24 (Base 50)    
Moisture  
Dew Point 60 °F    
Average Humidity 61    
Maximum Humidity 83    
Minimum Humidity 40    
Precipitation  
Precipitation 0.00 in 0.03 in - ()
Sea Level Pressure  
Sea Level Pressure 30.12 in    
Wind  
Wind Speed 4 mph ()    
Max Wind Speed 12 mph    
Max Gust Speed -    
Visibility 5.3 miles    
Events      
Averages and records for this station are not official NWS values.
T = Trace of Precipitation, MM = Missing Value Source: Averaged Metar Reports

Daily Weather History Graph

Daily Weather History Graph

Search for Another Location

Airport or City:

Trip Planner

Search our weather history database for the weather conditions in past years. The results will help you decide how hot, cold, wet, or windy it might be!

Date:

Astronomy

Sep. 07, 2012 Rise Set
Actual Time 7:00 AM WEST 7:39 PM WEST
Civil Twilight 6:34 AM WEST 8:04 PM WEST
Nautical Twilight 6:05 AM WEST 8:34 PM WEST
Astronomical Twilight 5:34 AM WEST 9:04 PM WEST
Moon 11:44 PM WEST (9/7) 1:20 PM WEST (9/7)
Length of Visible Light 13h 29m
Length of Day
12h 39m
Waning Gibbous, 60% of the Moon is Illuminated
Sep 7
Waning Gibbous
Sep 8
Last Quarter
Sep 16
New
Sep 22
First Quarter
Sep 30
Full

Hourly Weather History & Observations

Time (WEST) Temp. Heat Index Dew Point Humidity Pressure Visibility Wind Dir Wind Speed Gust Speed Precip Events Conditions
1:00 AM 67 °F - 60 °F 73% 30.06 in 6 mi West 5.8 mph - -   Clear
1:00 AM 66.2 °F - 60.8 °F 83% 30.12 in - West 5.8 mph - N/A   Clear
2:00 AM 66.2 °F - 60.8 °F 83% 30.12 in - SW 3.5 mph - N/A   Clear
4:00 AM 66 °F - 57 °F 66% 30.05 in 6 mi WNW 2.3 mph - -   Clear
6:00 AM 64.4 °F - 59.0 °F 83% 30.09 in - Calm Calm - N/A   Clear
7:00 AM 63 °F - 57 °F 75% 30.06 in 4 mi South 2.3 mph - -   Clear
7:00 AM 62.6 °F - 57.2 °F 82% 30.09 in 3.7 mi South 2.3 mph - N/A   Unknown
8:00 AM 66.2 °F - 57.2 °F 73% 30.12 in - North - - N/A   Partly Cloudy
9:00 AM 71.6 °F - 60.8 °F 69% 30.15 in 3.7 mi Calm Calm - N/A   Clear
10:00 AM 75 °F - 62 °F 54% 30.06 in 5 mi West 2.3 mph - -  
10:00 AM 75.2 °F - 60.8 °F 61% 30.15 in 5.0 mi West 2.3 mph - N/A   Clear
11:00 AM 77.0 °F - 60.8 °F 57% 30.15 in 3.7 mi West 4.6 mph - N/A   Clear
12:00 PM 78.8 °F - 60.8 °F 54% 30.18 in 5.0 mi NW 6.9 mph - N/A   Clear
1:00 PM 81 °F - 63 °F 44% 30.04 in 5 mi WNW 4.6 mph - -  
1:00 PM 80.6 °F 81.8 °F 62.6 °F 54% 30.15 in 5.0 mi WNW 4.6 mph - N/A   Clear
2:00 PM 84.2 °F 85.0 °F 62.6 °F 48% 30.15 in 6.2 mi NW 8.1 mph - N/A   Partly Cloudy
3:00 PM 82.4 °F 82.9 °F 60.8 °F 48% 30.12 in 6.2 mi NNW 8.1 mph - N/A   Partly Cloudy
4:00 PM 84.2 °F 83.8 °F 59.0 °F 42% 30.12 in 6.2 mi NW 11.5 mph - N/A   Partly Cloudy
5:00 PM 84.2 °F 83.8 °F 59.0 °F 42% 30.12 in 6.2 mi NW 11.5 mph - N/A   Partly Cloudy
6:00 PM 84.2 °F 83.5 °F 57.2 °F 40% 30.12 in 6.2 mi NW 11.5 mph - N/A   Partly Cloudy
7:00 PM 79 °F - 60 °F 43% 30.05 in 6 mi NW 11.5 mph - -   Scattered Clouds
7:00 PM 78.8 °F - 60.8 °F 54% 30.15 in 6.2 mi NW 11.5 mph - N/A   Partly Cloudy
8:00 PM 75.2 °F - 60.8 °F 61% 30.18 in - NW 9.2 mph - N/A   Clear
9:00 PM 73.4 °F - 60.8 °F 65% 30.18 in - WNW 6.9 mph - N/A   Clear
10:00 PM 71 °F - 60 °F 61% 30.15 in 6 mi West 2.3 mph - -  
10:00 PM 69.8 °F - 60.8 °F 73% 30.21 in - West 2.3 mph - N/A   Clear
11:00 PM 69.8 °F - 59.0 °F 68% 30.21 in - Calm Calm - N/A   Clear